User: anonymous   Login
Location: Lake Crest
(37.6062°N, 88.9176°W)
Time: 08:39:18
(UTC+00:00)
Language:

OAO 3 Rocket - Orbit

View from above orbital plane
View from above orbital plane
View from above satellite
View from above satellite

Ground track
Ground track

The orbit data is extracted from the following two-line orbital elements,

1  6155U 72065B   20057.33233891 +.00000083 +00000-0 +16700-4 0  9992
2  6155 035.0033 172.1343 0038541 308.8928 050.8336 14.71566999516096
Epoch (UTC): 26 February 2020 07:58:34
Eccentricity: 0.0038541
inclination: 35.0033°
perigee height: 629 km
apogee height: 683 km
right ascension of ascending node: 172.1343°
argument of perigee: 308.8928°
revolutions per day: 14.71566999
mean anomaly at epoch: 50.8336°
orbit number at epoch: 51609

The dashed part of the orbit path shows where the satellite is in the earth's shadow,  

DLR